Find Starlink 30210

NORAD ID: 57292 Int'l Des: 2023-096 Owner: SPXS Country: US Constellation: starlink decayed
LEOCIRCULAR
Vis

Historical Track — Mar 7, 2026

正在加载3D地球...

关于 Starlink 30210

正在加载描述...

高度历史

Loading altitude history...

两行轨道根数

1 57292U 23096C 26065.27296031 .01137375 75761-3 12791-2 0 9992
2 57292 42.9612 156.8410 0022508 18.6298 14.7713 16.08023750147969
Epoch: Mar 6, 2026 • Age: 955 hours

当前状态

Position data unavailable
发射日期 Jul 10, 2023
运行时间 2.7 years
衰减日期 Mar 7, 2026
类型 internet

技术详情

分类 Payload
质量 730.00 kg
干质量 700.00 kg
总质量 730.00 kg
长度 0.30 m
直径 4.10 m
跨度 29.00 m
形状 Box + pan
制造商 SPXS
平台类型 Starlink V2M
阶段状态 Unknown Transfer Status
所有者/国家 SPXS/US

Most Searched